map of KMWK home
Great Circle Mapper logo
KMWK - Airport
Location
City:  Mount Airy, North Carolina, United States
Name:Mount Airy/Surry County Airport
ICAO:KMWK
FAA:MWK

Details
Type:Airport (Airfield)
Use:Public/Civil
Latitude:3627'35"N (36.459722)
Longitude:8033'11"W (-80.552971)
Datum:WGS 1984
Elevation:1249 ft (381 m)
Variation:8.04W (WMM2015 magnetic declination)
-0.05 annual change
Runways:1
Longest:4301 × 75 ft (1311 × 23 m), paved

Time
Time Zone:UTC-5 (DST-4)
Local Time:

Weather
METAR:KMWK 282355Z AUTO 13005KT 1 1/4SM +RA SCT011 BKN014 OVC033 25/23 A3005 RMK AO2 P0014 60014 T02490229 10334 20249

Related Locations
Nearby:
Farthest:MGV: 11542 mi / 18574 km
Margaret River, WA, AU

Find:

   beyond  
but within

Other Information
Maps:
NOTAMs:
Links:
Sources:

  
flag of United States
flag of North Carolina
  

Sectional Chart

Flight Planning
at skyvector.com

Satellite Image

Google Maps Satellite view

 

Copyright © 2004-2015 Karl L. Swartz. All rights reserved.
The Great Circle Mapper name and logo are trademarks of the Great Circle Mapper.
All other trademarks mentioned herein belong to their respective owners.
Please see credits for attibutions and further copyright information.

  Follow gcmap on Facebook Follow gcmap on Twitter Follow gcmap on Google+

hCard Microformat

Geo Microformat